{"data":{"norad_id":63820,"epoch":"2026-05-24T14:39:29.099808Z","epoch_age_seconds":105767,"freshness":"FRESH","line1":"1 63820U 25092S   26144.61075347  .00011962  00000+0  44338-3 0  9990","line2":"2 63820  42.9992 103.9693 0001199 277.9842  82.0874 15.27590224 60222","mean_motion":15.27590224,"eccentricity":0.0001199,"inclination_deg":42.9992,"raan_deg":103.9693,"arg_perigee_deg":277.9842,"mean_anomaly_deg":82.0874,"bstar":0.00044338,"rev_number":6022,"period_min":94.266117796261,"perigee_km":482.19582933406,"apogee_km":483.84113441861,"semimajor_km":6861.1554818763,"source":"CELESTRAK","updated_at":"2026-05-25T13:38:20.142758Z"}}